Location: Newark
(35.9031°N, 139.7175°E)
Time: 12:01:08
(UTC+00:00)

Transit 2A - Pass Details

Date: 02 June 2020
Orbit: 592 x 967 km, 66.7° (Epoch: 06 July)

Event Time Altitude Azimuth Distance (km) Brightness Sun altitude
Rises 11:12:54 0° 344° (NNW) 3,559 10.5 -14.1°
Reaches altitude 10° 11:15:58 10° 359° (N) 2,656 9.4 -14.6°
Maximum altitude 11:20:52 23° 50° (NE) 1,906 8.0 -15.3°
Enters shadow 11:24:41 14° 94° (E) 2,414 8.1 -15.8°
